SCP
-0 -0 -0 -0 0 0 0 0 0 0 0 0 0 0 0 0 0 0 0 0 0 0 -0 -0 -0 -0 -0 -0 -0 0 0 -0 -0 -0 -0 -0 -0 -0 -0 -0 -0 -0 -0 -0 -0 -0 -0 -0 -0
0 -0 -0 0 0 0 0 0 0 0 0 0 0 0 0 0 0 0 0 0 0 0 0 -0 -0 -0 -0 0 0 0 0 0 -0 -0 -0 -0 -0 -0 -0 -0 -0 -0 -0 -0 -0 -0 0 0 0
-0 -0 0 0 0 0 0 0 0 0 0 0 0 0 0 0 0 0 1 0 0 0 0 -0 0 0 -0 0 0 0 0 0 -0 -0 -0 -0 -0 -0 0 0 0 0 0 0 0 0 0 0 0
0 -0 -0 0 0 0 0 0 0 0 0 0 0 0 0 0 0 1 1 0 0 0 0 0 0 0 0 0 0 0 0 0 0 -0 -0 0 0 0 0 0 0 0 0 0 0 0 0 0 0
0 0 0 0 0 0 0 0 0 0 0 0 0 0 0 0 1 1 1 1 1 0 0 0 0 0 0 0 0 0 0 0 0 0 0 0 0 0 0 0 0 0 0 0 0 0 0 0 0
0 0 0 0 0 0 0 0 0 0 0 0 0 0 0 0 0 1 1 1 1 1 0 1 1 0 0 0 0 0 0 0 0 0 0 0 0 0 0 0 0 0 0 0 0 0 0 0 0
0 0 0 0 0 0 0 0 0 0 0 0 0 0 0 0 0 0 1 1 1 1 1 1 0 1 1 1 1 1 1 1 0 0 0 0 0 0 0 0 0 0 0 0 0 0 0 0 0
0 0 0 0 0 0 0 0 0 0 0 0 0 0 0 0 0 0 0 0 0 0 1 1 1 1 0 1 1 1 1 1 1 1 0 0 0 0 0 0 0 0 0 0 0 0 0 0 0
0 0 0 0 0 0 0 0 0 0 0 0 0 0 0 0 0 0 0 0 0 0 0 1 1 1 1 1 1 1 1 1 1 1 1 0 0 0 0 0 0 0 0 0 0 0 0 0 0
0 0 0 0 0 0 0 0 0 0 0 0 0 0 0 0 0 0 0 0 0 0 0 0 2 2 2 2 1 1 1 1 1 1 0 0 0 0 0 0 1 1 0 0 0 0 0 0 0
0 0 0 0 0 0 0 0 0 0 0 0 0 0 0 0 0 0 0 0 0 0 0 0 0 3 3 2 2 2 2 1 1 1 1 1 0 0 0 0 0 0 0 0 0 0 0 0 0
0 0 0 0 0 0 0 0 0 0 0 0 0 0 0 0 0 0 0 0 0 0 0 0 0 0 1 1 2 2 2 2 1 1 1 1 1 1 1 0 0 0 0 0 0 0 0 0 0
0 0 0 0 0 0 0 0 0 0 0 0 0 0 0 0 0 0 0 0 0 0 0 0 0 0 0 1 1 2 2 2 1 1 1 1 1 1 1 1 0 0 0 0 0 0 0 0 0
0 0 0 0 0 0 0 0 0 0 0 0 0 0 0 0 0 0 0 0 0 0 0 0 0 0 0 0 1 2 3 2 2 2 2 1 1 1 1 1 1 0 0 0 0 0 0 0 0
0 0 0 0 0 0 0 -0 0 0 0 0 0 0 0 0 0 0 0 0 0 0 0 0 0 0 0 0 1 1 1 1 2 2 2 1 2 1 1 1 1 1 1 0 0 0 0 0 0
0 0 0 0 0 0 0 0 0 0 0 0 0 0 0 0 0 0 0 0 0 0 0 0 0 0 0 0 1 1 1 1 1 2 2 1 1 1 1 1 1 1 1 1 0 0 0 0 0
0 0 0 0 0 0 0 0 0 0 0 0 0 0 0 0 0 0 0 0 0 0 0 0 0 0 0 0 0 1 1 2 1 2 2 2 2 1 2 1 1 1 1 1 1 0 0 0 1
0 0 0 0 0 0 0 0 0 0 0 0 0 0 0 0 0 0 0 0 0 0 0 0 0 0 0 0 0 0 1 1 1 2 2 2 2 2 2 2 1 1 1 1 1 1 1 0 1
0 0 0 0 0 0 0 0 0 0 0 0 0 0 0 0 0 0 0 0 0 0 0 0 0 0 0 0 0 0 0 1 1 1 1 2 3 2 2 1 1 1 1 1 1 1 1 0 1
0 0 0 0 0 0 0 0 0 0 0 0 0 0 0 0 0 0 0 0 0 0 0 0 0 0 0 0 0 0 0 0 0 0 1 2 2 2 2 1 1 1 0 0 1 1 2 1 0
0 0 0 0 0 0 0 0 0 0 0 0 0 0 0 0 0 0 0 0 0 0 0 0 0 0 0 0 0 1 1 2 2 1 1 1 1 2 1 1 0 0 1 0 1 1 1 1 1
0 0 0 0 0 0 0 0 0 0 0 0 0 0 0 0 0 0 0 0 0 0 0 0 0 0 0 0 0 1 1 1 0 1 1 1 1 1 0 0 0 0 0 1 1 2 2 2 1
0 0 0 0 0 0 0 0 0 0 0 0 0 0 0 0 0 0 0 0 0 0 0 0 0 1 1 0 0 0 0 1 1 0 1 1 1 1 1 1 0 0 -0 0 0 1 2 3 3
0 0 0 0 0 -0 0 0 0 0 0 0 0 0 0 0 0 0 0 0 0 0 0 0 0 0 1 1 1 1 1 1 0 0 1 1 0 0 1 1 1 0 0 0 0 1 1 1 1
0 0 0 0 0 0 0 0 0 0 0 0 0 0 0 0 0 0 0 0 0 0 0 0 0 0 0 1 1 1 2 1 0 1 1 0 0 0 1 2 1 1 0 0 0 0 0 1 1
0 0 0 0 0 0 0 0 0 0 0 0 0 0 0 0 0 0 0 0 0 0 0 0 0 0 0 1 2 1 1 1 1 1 1 0 0 1 2 1 1 1 0 0 0 0 0 1 1
0 0 0 0 0 0 0 0 0 0 0 0 0 0 0 0 0 0 0 0 0 0 0 0 0 0 0 0 1 1 1 2 2 2 2 2 1 2 1 1 1 0 0 0 0 0 0 1 0
0 0 0 0 0 0 0 0 0 0 0 0 0 0 0 0 0 0 0 0 0 0 0 0 0 0 0 0 0 1 1 1 1 1 1 1 1 0 0 0 0 0 0 0 0 0 0 0 0
0 0 0 0 0 0 0 0 0 0 0 0 0 0 0 0 0 0 0 0 0 0 0 0 0 0 0 0 0 0 0 0 0 1 0 0 0 0 0 0 0 0 0 0 0 0 0 0 0
0 0 0 0 0 0 0 0 0 0 0 0 0 0 0 0 0 0 0 0 0 0 0 0 0 0 0 0 0 0 0 0 0 0 0 0 0 0 0 0 0 0 0 0 0 0 0 0 0
Wind_Speed_500mb
2 3 1 6 12 12 10 10 5 15 7 13 17 11 20 26 20 11 10 6 8 12 19 22 21 22 20 16 13 9 9 7 9 12 18 19 16 16 17 16 17 19 22 24 21 20 22 23 21
6 5 4 8 14 14 13 8 14 18 17 18 7 8 2 25 29 17 7 13 9 9 19 27 24 22 18 15 12 10 10 9 9 10 16 19 18 18 19 17 17 18 23 25 22 20 19 19 19
9 8 15 8 7 11 8 12 19 19 10 9 2 11 12 17 23 10 14 13 12 4 16 27 24 23 21 17 14 14 14 12 9 10 13 18 19 20 21 20 19 20 23 27 25 22 18 16 17
6 8 9 17 14 10 8 13 20 19 10 15 1 16 17 25 12 15 12 12 11 9 13 18 24 21 20 19 18 16 14 13 12 12 12 15 18 21 23 23 22 22 24 28 27 24 22 22 21
6 10 10 8 9 12 12 15 16 18 9 18 2 13 19 29 19 13 11 13 10 7 10 14 19 20 21 20 19 17 16 15 15 15 15 15 17 20 22 24 25 25 26 27 28 27 27 28 27
15 9 13 17 14 11 13 14 15 16 22 23 17 11 16 23 22 15 9 8 9 5 8 11 18 20 21 21 20 19 19 19 18 18 17 17 18 20 23 26 27 27 27 29 30 29 29 29 29
8 12 2 10 19 15 12 11 17 17 22 22 16 2 8 22 26 17 8 5 6 4 2 4 10 23 25 24 23 22 22 22 22 22 21 21 20 22 24 27 29 30 30 31 32 32 31 31 32
4 5 14 6 19 10 8 7 11 16 18 11 22 9 13 27 25 18 11 7 6 6 5 7 10 14 18 21 27 26 26 26 26 27 26 25 25 27 28 29 31 32 33 34 34 33 33 34 34
1 9 10 9 10 10 7 7 10 5 10 15 17 17 19 22 22 18 16 12 11 14 14 12 14 15 17 19 26 29 32 32 33 33 33 31 31 29 32 33 35 34 35 37 38 38 36 35 33
5 4 10 10 9 4 4 7 8 4 3 9 14 17 22 20 22 21 20 19 19 17 16 19 20 18 19 19 21 24 24 29 34 37 37 37 32 29 29 33 36 37 39 39 41 42 40 39 29
7 15 10 11 7 5 3 3 5 10 5 15 26 32 30 27 23 22 20 20 22 23 22 21 23 24 25 27 23 22 25 24 27 32 35 33 31 32 32 30 32 39 41 40 37 42 43 35 31
19 12 8 9 6 6 3 7 8 7 13 17 26 29 30 27 24 24 25 23 23 23 22 23 25 28 30 27 32 28 30 28 27 29 34 34 33 34 36 31 30 31 29 32 34 34 35 36 36
11 8 5 8 6 4 4 12 11 11 10 20 27 29 28 26 26 26 26 27 28 29 29 28 27 34 33 35 34 34 34 33 29 30 33 34 35 36 36 39 36 32 30 33 33 35 36 36 37
6 3 8 3 4 6 15 19 13 4 16 24 28 25 20 21 22 22 23 28 30 31 35 38 37 34 40 44 40 37 36 34 34 30 31 34 35 36 36 42 45 42 34 34 36 33 35 37 38
3 13 14 5 7 6 28 25 23 6 22 27 26 21 17 17 20 21 25 29 31 31 34 36 39 39 37 44 47 38 42 40 36 34 41 39 34 37 37 36 46 42 36 35 37 37 37 38 39
6 11 11 10 7 8 17 23 8 11 28 31 19 13 14 17 22 26 30 32 32 32 34 40 41 43 44 42 50 42 36 40 40 35 30 32 33 37 39 35 38 46 38 45 41 40 38 40 39
6 13 14 14 11 16 16 33 13 32 33 24 14 8 12 19 21 26 30 33 35 37 39 36 41 52 55 50 44 46 43 39 39 39 35 33 34 30 34 38 33 38 43 52 51 45 42 44 41
16 19 18 21 15 24 30 32 31 35 31 20 10 11 13 15 18 23 28 31 34 36 40 45 44 44 49 58 57 46 44 44 42 42 41 39 34 31 34 38 38 38 38 43 53 53 52 52 48
14 21 27 23 21 22 25 36 35 41 24 13 7 10 14 17 20 23 27 32 36 38 40 41 47 51 53 52 45 44 45 45 43 41 40 39 37 35 34 34 37 38 38 43 47 59 61 69 52
19 23 23 21 11 27 33 48 38 22 3 3 6 10 15 20 23 28 32 36 39 42 46 44 43 48 46 43 45 45 42 47 42 36 33 36 38 39 43 40 38 44 46 49 49 54 63 56 54
21 21 25 27 34 34 31 39 4 14 9 6 3 9 15 18 23 29 34 38 42 47 50 53 48 40 37 41 40 36 35 37 36 33 32 33 38 39 39 29 43 46 49 55 57 60 60 68 59
27 15 18 30 32 30 33 19 21 10 16 13 9 13 15 19 24 28 33 37 42 47 49 51 54 47 32 25 27 37 40 44 42 34 25 25 35 31 30 41 39 41 43 53 52 58 61 55 71
22 18 29 35 41 32 32 13 10 7 19 22 11 13 12 19 24 29 31 35 38 43 50 51 55 52 43 25 21 26 32 36 32 30 22 27 32 37 42 34 30 37 39 43 48 55 65 67 68
18 26 42 23 16 20 13 12 15 10 13 20 25 11 12 18 29 33 33 34 38 38 40 46 55 55 53 39 16 17 23 32 32 31 30 34 35 35 31 29 30 34 42 43 42 52 53 60 64
16 28 18 13 16 20 6 19 27 32 18 19 16 13 11 24 35 39 41 39 37 37 39 39 42 52 54 47 26 11 17 26 28 22 24 29 33 34 31 31 32 36 40 44 47 46 49 54 61
29 13 14 23 26 37 36 17 10 9 11 10 8 11 19 32 42 45 45 38 35 34 35 38 36 38 47 50 37 22 11 14 14 12 15 24 28 32 34 36 40 42 46 49 53 50 55 54 58
5 14 15 25 36 33 25 23 22 10 10 12 18 13 26 35 46 48 44 32 29 29 30 33 30 30 37 50 46 26 22 18 11 9 10 15 19 25 32 37 45 56 59 55 56 55 50 51 52
22 18 15 14 15 29 29 44 31 16 25 11 23 20 31 38 36 35 34 28 30 23 30 25 28 22 27 47 49 38 27 29 23 15 18 24 33 39 43 43 51 55 57 55 45 42 45 47 45
19 22 22 20 17 28 32 18 35 44 37 23 23 31 49 32 26 25 27 27 27 23 26 35 21 28 26 36 48 39 35 31 28 29 32 36 35 33 32 37 42 41 39 36 33 35 43 47 49
14 18 20 17 28 24 28 37 45 23 36 18 22 37 44 30 19 23 25 27 31 31 31 32 32 26 30 29 48 42 40 39 38 37 38 39 39 35 32 35 36 36 33 34 32 32 36 37 40
Wind_Direction_500mb
90 79 105 267 240 242 130 68 333 354 354 356 331 322 13 34 18 37 37 128 43 170 206 195 191 192 200 200 196 194 206 239 244 226 214 213 214 209 205 194 186 184 186 184 187 188 189 194 204
138 137 237 266 260 207 123 11 14 355 342 330 272 245 41 74 35 65 41 23 359 195 207 203 194 196 205 214 207 211 231 243 244 225 219 221 217 216 212 205 200 198 195 194 197 197 198 206 212
137 165 255 262 268 277 118 30 5 350 359 0 184 32 42 355 8 23 15 29 34 102 185 203 199 199 208 219 221 228 235 238 236 230 225 227 223 219 215 216 212 206 203 204 205 207 214 218 222
192 202 220 251 100 66 63 35 2 10 56 22 24 86 75 17 6 9 35 42 49 91 147 186 193 203 212 218 223 234 239 240 232 230 234 227 226 223 220 219 218 215 212 212 215 219 230 236 240
206 231 220 205 112 123 79 29 7 33 27 31 336 94 85 28 36 38 41 48 53 99 151 191 201 211 219 223 228 236 242 245 246 238 235 237 235 230 228 224 223 221 219 220 223 228 236 242 242
214 268 224 187 129 130 80 25 15 25 31 30 57 107 77 34 35 34 33 39 57 75 143 219 224 227 230 232 233 234 239 243 246 249 248 247 241 237 235 233 232 230 227 228 231 234 238 242 244
271 244 86 141 143 123 37 1 26 355 25 29 4 76 84 17 14 16 11 15 12 29 35 236 242 244 244 247 245 243 244 245 246 247 248 249 249 245 241 240 240 239 236 236 237 239 242 242 246
215 255 168 191 181 107 37 348 358 20 35 12 5 30 14 347 353 355 350 308 310 312 300 265 241 247 245 258 255 257 253 250 248 249 249 247 248 248 244 241 242 243 243 242 242 243 246 247 249
249 221 157 134 186 104 43 331 27 45 18 44 39 21 351 346 348 344 336 315 305 292 275 263 247 250 237 237 262 262 261 257 251 247 245 245 246 246 247 245 243 242 245 246 245 246 248 249 250
277 154 81 71 73 23 37 339 5 298 351 24 2 353 350 347 347 338 323 308 300 297 291 272 270 258 253 244 242 264 250 259 256 251 248 247 239 235 236 242 252 248 246 247 247 247 249 249 250
18 91 127 113 54 2 41 117 2 320 280 359 340 332 329 327 325 324 318 308 297 291 287 278 269 263 250 261 260 257 254 244 245 241 240 242 235 242 243 237 252 248 248 247 256 249 250 246 244
111 85 54 69 96 161 166 325 284 310 337 331 326 319 314 309 309 311 309 299 298 291 284 271 270 265 268 256 264 255 250 251 242 246 240 236 243 242 239 237 241 245 242 247 243 243 241 238 241
100 94 105 111 139 166 270 294 298 242 333 324 323 317 310 307 306 305 303 300 294 293 286 270 272 263 261 264 258 254 249 257 252 245 249 239 243 243 244 250 247 243 246 245 244 243 243 246 245
59 57 162 88 45 206 309 300 236 193 323 322 323 314 311 312 319 322 323 315 309 292 283 274 270 277 268 263 256 253 251 248 251 247 246 250 242 247 246 256 259 258 249 244 246 246 246 251 246
186 213 182 214 324 299 327 263 210 312 323 319 326 321 326 334 339 338 337 334 326 309 287 279 275 268 272 263 262 251 251 256 248 249 263 264 246 245 244 252 264 262 247 245 248 243 243 243 244
229 232 272 139 297 116 312 291 334 315 319 317 323 317 327 338 344 340 336 330 327 321 298 280 282 276 271 270 256 248 247 249 250 245 250 260 264 250 253 256 262 264 258 248 249 252 247 243 240
190 322 321 325 304 307 308 299 294 308 315 318 302 327 338 339 348 354 348 340 329 316 313 304 285 278 276 273 263 246 244 247 242 247 245 247 253 248 260 266 265 272 267 259 253 248 247 244 238
334 324 316 310 328 314 300 290 305 305 309 306 291 335 354 5 8 358 353 349 345 335 312 303 300 293 279 268 263 248 240 243 243 241 247 248 248 252 259 270 273 271 268 265 260 249 242 248 242
314 307 304 309 339 311 302 298 300 303 294 259 314 340 2 2 356 358 1 359 356 351 340 320 301 294 287 267 249 244 241 237 234 240 244 242 248 251 255 263 267 267 265 266 265 258 249 239 244
311 301 303 313 322 316 304 299 296 297 278 249 331 348 351 350 352 356 358 359 360 357 354 344 327 304 289 265 244 237 242 237 238 238 243 247 255 261 259 264 267 267 266 264 260 256 248 243 233
309 308 320 315 313 287 288 290 239 173 228 186 335 331 341 350 350 353 355 356 357 358 357 354 346 330 300 273 239 231 229 224 227 230 240 253 254 248 265 283 291 278 267 264 259 264 253 246 235
302 16 301 296 305 303 317 291 255 199 216 219 304 320 337 344 339 339 341 346 350 355 356 358 358 352 333 277 234 225 231 231 232 232 235 245 253 249 261 282 282 280 281 267 263 251 253 254 243
305 319 294 290 295 294 278 239 91 142 238 221 353 326 329 349 347 343 337 336 338 345 352 357 1 2 356 317 236 232 234 229 217 209 225 265 250 258 264 269 273 282 292 279 268 265 258 258 249
313 289 294 274 264 259 77 279 296 324 250 285 318 319 317 336 337 336 332 328 332 332 344 351 359 1 7 360 324 246 231 225 211 208 245 264 248 264 274 271 278 287 291 296 290 273 262 261 256
260 315 314 292 268 299 85 271 273 297 314 287 306 321 312 327 326 328 328 326 324 330 338 344 350 357 5 7 0 308 244 237 239 239 248 245 256 268 275 276 291 288 290 293 290 282 275 262 262
295 299 292 301 309 305 305 273 45 0 327 318 309 295 308 327 325 322 321 322 323 324 327 340 352 355 360 4 7 5 325 276 259 280 250 260 267 274 277 291 293 297 298 296 296 286 277 267 263
73 256 358 286 278 272 274 280 219 249 234 249 276 314 324 329 324 323 316 313 324 337 334 341 341 349 11 358 358 357 9 8 3 332 298 280 289 291 300 302 300 300 295 298 296 295 286 270 267
250 334 284 259 296 298 306 306 294 6 330 266 315 321 321 320 327 337 337 322 322 324 357 328 353 336 11 2 353 352 354 360 359 352 325 317 315 313 314 313 305 299 297 297 295 293 289 274 266
280 249 234 260 284 288 296 286 332 327 306 312 299 323 321 322 313 323 336 336 339 344 337 353 324 336 331 341 340 347 355 353 354 353 343 328 322 324 325 321 314 307 302 303 299 291 294 277 260
257 278 295 277 285 290 292 282 287 338 344 282 345 299 314 303 312 320 320 324 328 336 339 332 330 354 304 323 325 336 344 345 352 353 343 335 331 324 320 314 317 316 312 309 300 288 276 266 252
Wind_Speed_850mb
2 3 1 6 12 12 10 10 5 15 7 13 17 11 20 26 20 11 10 6 8 12 19 22 21 22 20 16 13 9 9 7 9 12 18 19 16 16 17 16 17 19 22 24 21 20 22 23 21
6 5 4 8 14 14 13 8 14 18 17 18 7 8 2 25 29 17 7 13 9 9 19 27 24 22 18 15 12 10 10 9 9 10 16 19 18 18 19 17 17 18 23 25 22 20 19 19 19
9 8 15 8 7 11 8 12 19 19 10 9 2 11 12 17 23 10 14 13 12 4 16 27 24 23 21 17 14 14 14 12 9 10 13 18 19 20 21 20 19 20 23 27 25 22 18 16 17
6 8 9 17 14 10 8 13 20 19 10 15 1 16 17 25 12 15 12 12 11 9 13 18 24 21 20 19 18 16 14 13 12 12 12 15 18 21 23 23 22 22 24 28 27 24 22 22 21
6 10 10 8 9 12 12 15 16 18 9 18 2 13 19 29 19 13 11 13 10 7 10 14 19 20 21 20 19 17 16 15 15 15 15 15 17 20 22 24 25 25 26 27 28 27 27 28 27
15 9 13 17 14 11 13 14 15 16 22 23 17 11 16 23 22 15 9 8 9 5 8 11 18 20 21 21 20 19 19 19 18 18 17 17 18 20 23 26 27 27 27 29 30 29 29 29 29
8 12 2 10 19 15 12 11 17 17 22 22 16 2 8 22 26 17 8 5 6 4 2 4 10 23 25 24 23 22 22 22 22 22 21 21 20 22 24 27 29 30 30 31 32 32 31 31 32
4 5 14 6 19 10 8 7 11 16 18 11 22 9 13 27 25 18 11 7 6 6 5 7 10 14 18 21 27 26 26 26 26 27 26 25 25 27 28 29 31 32 33 34 34 33 33 34 34
1 9 10 9 10 10 7 7 10 5 10 15 17 17 19 22 22 18 16 12 11 14 14 12 14 15 17 19 26 29 32 32 33 33 33 31 31 29 32 33 35 34 35 37 38 38 36 35 33
5 4 10 10 9 4 4 7 8 4 3 9 14 17 22 20 22 21 20 19 19 17 16 19 20 18 19 19 21 24 24 29 34 37 37 37 32 29 29 33 36 37 39 39 41 42 40 39 29
7 15 10 11 7 5 3 3 5 10 5 15 26 32 30 27 23 22 20 20 22 23 22 21 23 24 25 27 23 22 25 24 27 32 35 33 31 32 32 30 32 39 41 40 37 42 43 35 31
19 12 8 9 6 6 3 7 8 7 13 17 26 29 30 27 24 24 25 23 23 23 22 23 25 28 30 27 32 28 30 28 27 29 34 34 33 34 36 31 30 31 29 32 34 34 35 36 36
11 8 5 8 6 4 4 12 11 11 10 20 27 29 28 26 26 26 26 27 28 29 29 28 27 34 33 35 34 34 34 33 29 30 33 34 35 36 36 39 36 32 30 33 33 35 36 36 37
6 3 8 3 4 6 15 19 13 4 16 24 28 25 20 21 22 22 23 28 30 31 35 38 37 34 40 44 40 37 36 34 34 30 31 34 35 36 36 42 45 42 34 34 36 33 35 37 38
3 13 14 5 7 6 28 25 23 6 22 27 26 21 17 17 20 21 25 29 31 31 34 36 39 39 37 44 47 38 42 40 36 34 41 39 34 37 37 36 46 42 36 35 37 37 37 38 39
6 11 11 10 7 8 17 23 8 11 28 31 19 13 14 17 22 26 30 32 32 32 34 40 41 43 44 42 50 42 36 40 40 35 30 32 33 37 39 35 38 46 38 45 41 40 38 40 39
6 13 14 14 11 16 16 33 13 32 33 24 14 8 12 19 21 26 30 33 35 37 39 36 41 52 55 50 44 46 43 39 39 39 35 33 34 30 34 38 33 38 43 52 51 45 42 44 41
16 19 18 21 15 24 30 32 31 35 31 20 10 11 13 15 18 23 28 31 34 36 40 45 44 44 49 58 57 46 44 44 42 42 41 39 34 31 34 38 38 38 38 43 53 53 52 52 48
14 21 27 23 21 22 25 36 35 41 24 13 7 10 14 17 20 23 27 32 36 38 40 41 47 51 53 52 45 44 45 45 43 41 40 39 37 35 34 34 37 38 38 43 47 59 61 69 52
19 23 23 21 11 27 33 48 38 22 3 3 6 10 15 20 23 28 32 36 39 42 46 44 43 48 46 43 45 45 42 47 42 36 33 36 38 39 43 40 38 44 46 49 49 54 63 56 54
21 21 25 27 34 34 31 39 4 14 9 6 3 9 15 18 23 29 34 38 42 47 50 53 48 40 37 41 40 36 35 37 36 33 32 33 38 39 39 29 43 46 49 55 57 60 60 68 59
27 15 18 30 32 30 33 19 21 10 16 13 9 13 15 19 24 28 33 37 42 47 49 51 54 47 32 25 27 37 40 44 42 34 25 25 35 31 30 41 39 41 43 53 52 58 61 55 71
22 18 29 35 41 32 32 13 10 7 19 22 11 13 12 19 24 29 31 35 38 43 50 51 55 52 43 25 21 26 32 36 32 30 22 27 32 37 42 34 30 37 39 43 48 55 65 67 68
18 26 42 23 16 20 13 12 15 10 13 20 25 11 12 18 29 33 33 34 38 38 40 46 55 55 53 39 16 17 23 32 32 31 30 34 35 35 31 29 30 34 42 43 42 52 53 60 64
16 28 18 13 16 20 6 19 27 32 18 19 16 13 11 24 35 39 41 39 37 37 39 39 42 52 54 47 26 11 17 26 28 22 24 29 33 34 31 31 32 36 40 44 47 46 49 54 61
29 13 14 23 26 37 36 17 10 9 11 10 8 11 19 32 42 45 45 38 35 34 35 38 36 38 47 50 37 22 11 14 14 12 15 24 28 32 34 36 40 42 46 49 53 50 55 54 58
5 14 15 25 36 33 25 23 22 10 10 12 18 13 26 35 46 48 44 32 29 29 30 33 30 30 37 50 46 26 22 18 11 9 10 15 19 25 32 37 45 56 59 55 56 55 50 51 52
22 18 15 14 15 29 29 44 31 16 25 11 23 20 31 38 36 35 34 28 30 23 30 25 28 22 27 47 49 38 27 29 23 15 18 24 33 39 43 43 51 55 57 55 45 42 45 47 45
19 22 22 20 17 28 32 18 35 44 37 23 23 31 49 32 26 25 27 27 27 23 26 35 21 28 26 36 48 39 35 31 28 29 32 36 35 33 32 37 42 41 39 36 33 35 43 47 49
14 18 20 17 28 24 28 37 45 23 36 18 22 37 44 30 19 23 25 27 31 31 31 32 32 26 30 29 48 42 40 39 38 37 38 39 39 35 32 35 36 36 33 34 32 32 36 37 40
Wind_Direction_850mb
90 79 105 267 240 242 130 68 333 354 354 356 331 322 13 34 18 37 37 128 43 170 206 195 191 192 200 200 196 194 206 239 244 226 214 213 214 209 205 194 186 184 186 184 187 188 189 194 204
138 137 237 266 260 207 123 11 14 355 342 330 272 245 41 74 35 65 41 23 359 195 207 203 194 196 205 214 207 211 231 243 244 225 219 221 217 216 212 205 200 198 195 194 197 197 198 206 212
137 165 255 262 268 277 118 30 5 350 359 0 184 32 42 355 8 23 15 29 34 102 185 203 199 199 208 219 221 228 235 238 236 230 225 227 223 219 215 216 212 206 203 204 205 207 214 218 222
192 202 220 251 100 66 63 35 2 10 56 22 24 86 75 17 6 9 35 42 49 91 147 186 193 203 212 218 223 234 239 240 232 230 234 227 226 223 220 219 218 215 212 212 215 219 230 236 240
206 231 220 205 112 123 79 29 7 33 27 31 336 94 85 28 36 38 41 48 53 99 151 191 201 211 219 223 228 236 242 245 246 238 235 237 235 230 228 224 223 221 219 220 223 228 236 242 242
214 268 224 187 129 130 80 25 15 25 31 30 57 107 77 34 35 34 33 39 57 75 143 219 224 227 230 232 233 234 239 243 246 249 248 247 241 237 235 233 232 230 227 228 231 234 238 242 244
271 244 86 141 143 123 37 1 26 355 25 29 4 76 84 17 14 16 11 15 12 29 35 236 242 244 244 247 245 243 244 245 246 247 248 249 249 245 241 240 240 239 236 236 237 239 242 242 246
215 255 168 191 181 107 37 348 358 20 35 12 5 30 14 347 353 355 350 308 310 312 300 265 241 247 245 258 255 257 253 250 248 249 249 247 248 248 244 241 242 243 243 242 242 243 246 247 249
249 221 157 134 186 104 43 331 27 45 18 44 39 21 351 346 348 344 336 315 305 292 275 263 247 250 237 237 262 262 261 257 251 247 245 245 246 246 247 245 243 242 245 246 245 246 248 249 250
277 154 81 71 73 23 37 339 5 298 351 24 2 353 350 347 347 338 323 308 300 297 291 272 270 258 253 244 242 264 250 259 256 251 248 247 239 235 236 242 252 248 246 247 247 247 249 249 250
18 91 127 113 54 2 41 117 2 320 280 359 340 332 329 327 325 324 318 308 297 291 287 278 269 263 250 261 260 257 254 244 245 241 240 242 235 242 243 237 252 248 248 247 256 249 250 246 244
111 85 54 69 96 161 166 325 284 310 337 331 326 319 314 309 309 311 309 299 298 291 284 271 270 265 268 256 264 255 250 251 242 246 240 236 243 242 239 237 241 245 242 247 243 243 241 238 241
100 94 105 111 139 166 270 294 298 242 333 324 323 317 310 307 306 305 303 300 294 293 286 270 272 263 261 264 258 254 249 257 252 245 249 239 243 243 244 250 247 243 246 245 244 243 243 246 245
59 57 162 88 45 206 309 300 236 193 323 322 323 314 311 312 319 322 323 315 309 292 283 274 270 277 268 263 256 253 251 248 251 247 246 250 242 247 246 256 259 258 249 244 246 246 246 251 246
186 213 182 214 324 299 327 263 210 312 323 319 326 321 326 334 339 338 337 334 326 309 287 279 275 268 272 263 262 251 251 256 248 249 263 264 246 245 244 252 264 262 247 245 248 243 243 243 244
229 232 272 139 297 116 312 291 334 315 319 317 323 317 327 338 344 340 336 330 327 321 298 280 282 276 271 270 256 248 247 249 250 245 250 260 264 250 253 256 262 264 258 248 249 252 247 243 240
190 322 321 325 304 307 308 299 294 308 315 318 302 327 338 339 348 354 348 340 329 316 313 304 285 278 276 273 263 246 244 247 242 247 245 247 253 248 260 266 265 272 267 259 253 248 247 244 238
334 324 316 310 328 314 300 290 305 305 309 306 291 335 354 5 8 358 353 349 345 335 312 303 300 293 279 268 263 248 240 243 243 241 247 248 248 252 259 270 273 271 268 265 260 249 242 248 242
314 307 304 309 339 311 302 298 300 303 294 259 314 340 2 2 356 358 1 359 356 351 340 320 301 294 287 267 249 244 241 237 234 240 244 242 248 251 255 263 267 267 265 266 265 258 249 239 244
311 301 303 313 322 316 304 299 296 297 278 249 331 348 351 350 352 356 358 359 360 357 354 344 327 304 289 265 244 237 242 237 238 238 243 247 255 261 259 264 267 267 266 264 260 256 248 243 233
309 308 320 315 313 287 288 290 239 173 228 186 335 331 341 350 350 353 355 356 357 358 357 354 346 330 300 273 239 231 229 224 227 230 240 253 254 248 265 283 291 278 267 264 259 264 253 246 235
302 16 301 296 305 303 317 291 255 199 216 219 304 320 337 344 339 339 341 346 350 355 356 358 358 352 333 277 234 225 231 231 232 232 235 245 253 249 261 282 282 280 281 267 263 251 253 254 243
305 319 294 290 295 294 278 239 91 142 238 221 353 326 329 349 347 343 337 336 338 345 352 357 1 2 356 317 236 232 234 229 217 209 225 265 250 258 264 269 273 282 292 279 268 265 258 258 249
313 289 294 274 264 259 77 279 296 324 250 285 318 319 317 336 337 336 332 328 332 332 344 351 359 1 7 360 324 246 231 225 211 208 245 264 248 264 274 271 278 287 291 296 290 273 262 261 256
260 315 314 292 268 299 85 271 273 297 314 287 306 321 312 327 326 328 328 326 324 330 338 344 350 357 5 7 0 308 244 237 239 239 248 245 256 268 275 276 291 288 290 293 290 282 275 262 262
295 299 292 301 309 305 305 273 45 0 327 318 309 295 308 327 325 322 321 322 323 324 327 340 352 355 360 4 7 5 325 276 259 280 250 260 267 274 277 291 293 297 298 296 296 286 277 267 263
73 256 358 286 278 272 274 280 219 249 234 249 276 314 324 329 324 323 316 313 324 337 334 341 341 349 11 358 358 357 9 8 3 332 298 280 289 291 300 302 300 300 295 298 296 295 286 270 267
250 334 284 259 296 298 306 306 294 6 330 266 315 321 321 320 327 337 337 322 322 324 357 328 353 336 11 2 353 352 354 360 359 352 325 317 315 313 314 313 305 299 297 297 295 293 289 274 266
280 249 234 260 284 288 296 286 332 327 306 312 299 323 321 322 313 323 336 336 339 344 337 353 324 336 331 341 340 347 355 353 354 353 343 328 322 324 325 321 314 307 302 303 299 291 294 277 260
257 278 295 277 285 290 292 282 287 338 344 282 345 299 314 303 312 320 320 324 328 336 339 332 330 354 304 323 325 336 344 345 352 353 343 335 331 324 320 314 317 316 312 309 300 288 276 266 252